Theta_e
330 327 327 328 330 331 331 332 330 331 329 327 327 327 327 327 327 327 326 323 322 323 323 321 321 322 318 317 318 318 317 316 311 314 316 318 320 320 321 322 323 324 328
330 329 328 327 330 331 332 332 332 330 329 328 328 327 327 327 327 326 324 322 321 320 320 320 319 318 319 319 316 316 316 316 313 311 315 315 318 320 319 320 320 322 325
327 328 326 327 329 330 331 332 330 330 328 328 327 328 327 327 326 326 324 322 321 321 320 319 319 319 317 315 315 314 314 313 313 311 312 315 317 318 317 319 320 322 325
325 327 326 325 328 330 331 331 331 330 329 327 328 328 328 327 326 325 323 322 321 320 320 319 318 316 315 314 313 314 314 313 313 311 311 313 313 316 316 314 314 319 320
325 325 327 327 329 328 330 329 330 330 328 328 328 328 328 326 324 325 322 320 320 318 317 315 314 314 311 312 311 312 313 311 310 309 309 309 309 310 312 313 310 313 318
327 326 326 328 329 327 329 329 328 327 327 328 327 327 327 324 308 308 315 319 316 314 313 313 314 312 312 309 309 309 310 308 308 307 308 306 306 307 310 311 312 309 308
327 327 327 327 328 329 328 327 327 328 329 327 327 327 326 325 304 303 304 314 314 313 313 313 311 310 310 310 308 307 307 306 307 308 306 307 308 309 311 311 311 311 310
326 326 327 326 326 328 328 327 329 329 328 327 326 325 324 320 302 300 301 313 313 313 312 312 311 310 310 308 308 308 309 311 311 309 309 309 311 312 312 312 310 312 313
326 326 326 327 327 327 326 328 328 326 326 324 322 320 318 318 301 299 302 311 310 310 310 310 309 308 303 299 304 306 307 308 307 304 303 302 300 300 304 311 308 308 307
319 323 327 327 327 326 327 325 323 323 321 318 315 315 308 314 301 298 301 307 307 307 308 309 303 303 298 297 303 304 300 304 305 305 305 305 304 307 302 308 309 305 307
315 316 318 321 323 323 321 318 317 317 313 311 312 313 312 310 309 297 296 305 305 305 305 306 308 299 296 296 295 302 301 301 301 301 302 303 304 306 308 309 311 309 308
311 312 311 310 311 313 312 311 309 310 309 309 308 309 310 310 301 299 296 295 299 302 304 305 306 297 295 295 296 297 295 296 298 298 299 299 301 303 307 308 312 313 313
310 308 308 308 311 309 307 306 307 308 309 308 308 307 307 307 307 298 295 294 296 300 304 301 296 295 295 296 296 295 295 297 297 296 297 299 302 305 306 308 309 313 315
309 307 306 306 306 307 307 305 305 306 306 306 306 305 305 305 306 306 306 305 299 301 301 302 300 297 296 297 298 300 301 299 298 298 298 300 302 302 302 305 306 307 308
310 305 303 302 302 302 301 303 303 303 303 304 305 304 302 302 304 297 296 301 302 299 296 298 300 301 301 302 302 303 302 301 300 300 299 298 298 299 299 302 303 305 304
308 305 303 302 303 303 300 299 293 294 293 293 292 296 303 295 293 292 291 291 291 291 295 296 297 299 298 299 300 300 301 301 301 300 299 298 297 297 298 299 301 302 303
306 303 301 299 300 299 299 302 301 297 294 293 293 292 291 292 291 291 291 291 290 292 299 299 298 298 299 301 301 300 299 300 301 300 300 299 299 298 296 298 299 299 300
306 299 303 302 301 301 301 301 301 302 302 302 295 294 294 291 291 291 291 292 301 299 300 297 297 299 299 300 299 298 298 298 298 298 298 299 300 298 297 297 297 298 299
304 303 303 301 301 300 302 301 302 302 301 301 301 298 296 292 292 291 291 298 297 296 296 297 299 298 298 298 297 297 297 297 297 297 298 298 299 299 297 298 298 294 295
302 295 297 299 299 301 301 300 301 300 300 299 299 299 300 297 298 297 297 296 296 296 297 297 297 297 296 296 296 296 296 295 295 295 296 297 298 300 299 298 298 297 297
301 300 291 300 300 301 300 301 301 300 298 298 298 298 285 293 294 294 295 295 296 296 295 295 295 295 295 296 295 295 295 295 295 295 296 298 299 299 300 300 299 299 299
300 299 299 298 300 299 300 301 299 297 297 298 298 298 287 294 294 294 295 295 296 296 295 295 294 295 295 295 295 294 293 293 294 295 297 302 302 301 301 299 299 299 299
298 300 300 300 299 294 298 297 297 297 298 298 297 296 294 294 295 295 295 296 295 294 294 295 295 295 296 295 295 294 293 293 295 299 303 302 301 301 300 299 299 299 299
298 298 299 299 299 297 296 297 297 292 296 297 297 297 297 297 297 296 296 296 293 294 295 295 295 295 295 294 294 295 296 297 300 307 305 302 301 299 301 300 300 300 300
297 298 299 297 295 296 296 296 296 296 296 296 297 297 297 298 297 298 296 296 294 294 294 295 295 295 294 292 293 293 293 286 292 299 309 306 304 301 300 300 300 301 303
298 296 294 295 296 296 296 295 294 294 294 294 295 296 297 297 297 297 296 297 294 293 294 295 295 294 293 292 291 287 287 287 292 290 307 309 307 307 306 306 306 306 306
Wind_Speed
22 19 20 18 16 15 14 14 14 13 13 14 13 12 11 9 8 6 4 4 3 2 3 5 6 7 6 6 6 7 8 8 12 13 10 11 11 12 10 10 10 10 7
17 17 17 16 16 16 14 14 15 15 15 14 13 12 11 10 8 6 5 4 4 5 5 6 7 6 9 7 7 9 9 10 11 17 13 11 11 10 11 12 9 8 9
16 15 15 16 17 16 15 14 15 15 15 13 12 12 11 9 8 6 5 5 5 6 6 7 9 9 9 8 10 9 9 8 10 11 13 10 9 7 10 10 9 9 6
15 16 15 15 16 17 16 17 16 16 15 14 12 10 9 9 7 6 5 5 5 6 6 8 9 10 10 10 9 10 9 9 10 11 12 11 9 7 8 9 8 7 7
18 20 20 18 15 15 17 17 15 15 13 13 12 11 9 7 5 6 5 5 6 7 8 9 9 9 11 11 9 11 12 11 10 12 12 11 9 9 8 7 7 7 9
16 17 17 18 20 17 17 16 15 15 14 14 12 11 10 6 8 6 4 5 6 8 8 9 9 9 11 11 14 15 14 13 14 13 13 13 13 10 10 9 7 5 5
13 15 17 19 20 19 18 17 16 15 14 13 12 11 9 7 8 6 7 6 6 7 8 9 9 8 9 13 11 12 15 18 16 15 16 16 14 12 12 11 8 6 4
10 11 13 16 17 17 17 16 15 13 13 12 11 10 8 6 7 6 5 5 7 8 9 11 11 12 13 13 13 14 14 12 12 10 12 14 12 11 13 10 10 9 8
7 10 12 15 15 16 17 15 13 12 11 10 9 8 7 5 6 1 3 6 8 10 10 11 11 13 11 6 14 14 13 13 9 13 17 18 16 15 15 9 7 7 8
5 4 6 11 13 13 13 13 10 11 10 9 8 6 4 4 6 1 3 6 9 9 11 12 10 13 8 13 13 11 12 13 12 13 12 11 15 15 16 16 11 8 6
7 6 7 8 8 10 11 11 12 12 11 9 8 6 5 4 4 4 5 6 7 8 10 10 9 5 10 13 13 13 14 13 14 13 13 12 11 13 11 12 14 13 11
9 12 10 8 7 9 12 10 8 9 8 7 5 4 4 4 5 6 5 5 7 9 10 10 11 8 11 13 13 16 16 15 11 11 11 11 12 12 11 11 15 14 14
9 8 9 9 10 6 7 10 7 5 4 4 3 3 3 3 4 3 5 8 8 9 10 12 18 20 21 19 22 22 20 11 10 11 12 12 12 11 12 12 12 13 16
9 10 7 5 6 6 5 6 6 4 1 1 3 4 3 5 5 5 5 5 8 11 7 10 13 15 19 18 17 14 10 10 11 11 11 10 9 9 10 11 10 10 10
7 8 6 5 6 4 7 5 4 2 2 4 3 3 3 6 6 5 6 8 9 9 12 11 11 10 10 11 10 11 9 10 10 11 10 9 9 9 10 9 10 10 11
8 8 7 7 5 5 5 3 8 5 1 5 6 5 5 9 13 13 11 12 15 12 7 9 10 10 10 10 12 11 10 12 11 10 10 10 10 10 9 9 10 11 11
8 7 6 6 6 6 5 5 6 7 7 8 6 7 9 12 13 12 12 13 13 6 9 9 9 9 10 12 11 10 11 10 12 10 10 9 10 10 10 10 10 11 11
8 6 6 5 4 4 3 4 3 1 2 2 9 7 5 8 11 14 12 10 8 6 9 7 10 11 12 11 11 10 10 10 10 10 10 10 9 10 10 9 11 11 11
9 6 6 6 5 5 3 4 1 1 3 4 5 4 2 3 9 13 10 6 8 8 8 9 11 11 11 11 11 11 11 11 10 10 10 10 10 9 11 11 11 12 11
9 11 6 6 6 5 4 3 1 3 4 5 7 8 9 8 8 8 7 7 7 7 9 11 10 10 11 11 11 11 11 11 10 10 10 10 10 10 11 12 11 11 12
9 8 6 5 5 4 3 2 2 3 5 6 6 4 4 8 8 8 8 8 8 8 10 10 10 11 11 11 11 10 11 11 10 10 10 10 10 9 11 11 11 11 11
8 7 6 6 5 5 2 1 3 4 4 5 6 5 5 6 7 8 9 9 8 9 9 10 10 10 10 10 10 11 11 11 10 9 11 8 7 8 9 11 11 11 11
6 7 7 5 4 4 3 4 4 4 4 4 5 6 7 7 7 8 8 7 8 9 9 9 10 10 9 9 9 9 10 10 9 10 6 5 5 5 7 9 10 10 11
6 6 5 5 4 4 4 4 4 4 5 5 6 6 6 7 7 8 8 8 8 10 10 9 10 12 11 11 9 9 9 9 8 6 5 3 2 4 6 7 8 11 10
5 6 5 5 5 5 6 5 5 6 5 6 6 7 8 8 8 9 10 9 9 10 12 12 10 14 14 16 14 17 12 10 8 6 4 6 7 9 7 7 8 5 8
7 6 5 6 7 7 6 5 6 6 6 6 7 7 8 9 10 12 11 13 11 11 14 12 14 18 17 12 16 17 12 9 7 7 3 3 4 3 4 8 13 8 9
Wind_Direction
181 185 185 179 178 167 169 176 176 166 170 170 173 172 174 170 169 175 165 154 205 247 268 278 291 298 297 299 288 276 274 274 280 289 298 296 303 306 316 324 316 316 301
191 181 175 166 174 168 168 177 171 171 177 175 174 177 176 171 172 179 182 192 229 246 259 276 289 291 294 299 290 290 287 287 283 289 297 292 288 298 310 313 318 313 305
182 176 171 173 170 170 170 172 178 171 173 175 176 182 180 175 175 186 198 215 240 259 273 278 284 287 293 297 294 292 291 286 284 286 294 290 293 288 302 303 309 310 295
174 172 172 177 176 174 172 172 176 178 170 172 180 184 179 176 189 198 204 225 246 262 270 272 280 286 285 288 289 290 286 289 289 282 284 294 308 301 290 297 308 314 336
176 181 181 175 173 176 172 179 172 176 171 168 173 186 179 183 193 197 212 232 251 267 272 276 275 280 278 275 283 287 292 285 287 287 286 291 296 288 277 299 292 311 303
191 192 182 176 172 176 171 170 167 168 169 165 179 183 180 190 145 161 221 241 261 273 288 286 284 272 268 255 262 268 277 282 276 280 285 290 286 287 285 287 292 276 298
198 195 192 183 176 178 169 167 171 173 168 167 173 182 184 187 152 168 206 245 265 280 281 284 288 290 285 285 277 253 249 247 253 277 279 274 276 275 281 288 281 258 244
202 198 194 189 179 169 166 170 166 167 167 169 170 181 178 177 165 201 211 279 281 282 279 279 282 283 280 286 289 282 274 276 274 266 267 273 274 275 272 273 280 273 269
193 187 186 182 172 168 163 164 156 158 158 164 165 168 183 183 175 208 318 301 288 284 280 280 279 281 286 266 281 279 287 282 282 255 253 262 269 269 266 275 258 254 250
41 44 172 175 171 164 154 147 149 144 150 140 148 162 132 233 154 222 286 287 286 294 291 283 244 256 270 265 277 286 280 285 291 285 279 263 251 254 239 247 252 248 245
67 67 79 91 118 127 127 135 136 142 137 137 155 165 187 233 255 208 241 288 289 293 287 287 285 238 243 256 250 276 271 286 283 277 273 267 261 257 247 232 231 235 227
68 76 58 78 100 107 106 104 113 132 126 128 154 187 208 236 221 250 251 246 303 285 283 290 289 276 271 270 269 274 265 268 267 262 260 255 253 248 246 236 236 226 233
91 74 84 71 76 91 106 124 122 95 110 160 211 239 257 266 277 218 294 287 283 277 286 296 292 281 277 274 262 259 263 254 249 247 247 246 245 250 251 244 235 237 229
126 130 101 107 146 121 90 62 99 105 220 174 239 264 310 316 304 296 301 299 244 256 282 288 293 284 271 264 280 278 257 247 241 242 245 246 247 242 232 231 232 222 223
130 113 100 102 53 58 44 39 57 166 349 278 293 309 283 266 277 307 294 300 299 307 312 287 283 288 292 291 280 268 258 247 242 242 243 240 235 232 231 227 227 223 216
145 135 139 130 140 146 137 91 14 8 269 287 293 275 267 248 289 282 277 267 261 265 277 281 286 285 282 285 272 268 258 256 250 248 239 232 230 228 225 223 226 225 224
127 124 123 130 152 140 155 176 176 183 202 205 208 228 236 272 270 273 273 281 285 294 278 288 277 279 281 270 270 269 270 265 266 262 255 239 226 225 214 218 217 223 224
122 120 139 133 122 135 131 111 94 289 291 265 208 243 272 268 284 295 304 305 301 283 280 288 286 280 273 274 274 274 272 270 267 264 260 253 234 218 218 214 212 214 219
141 131 118 116 103 92 94 92 80 325 317 317 312 286 293 285 281 273 276 301 291 290 298 290 277 276 278 278 277 275 275 274 272 268 261 250 240 219 214 214 208 207 212
109 108 120 127 127 119 104 83 26 337 322 334 328 331 329 329 307 316 318 310 294 296 290 279 282 283 281 282 282 281 278 274 269 263 257 245 234 225 214 209 205 200 206
124 124 93 97 100 100 82 52 330 319 337 322 307 326 345 315 314 307 315 309 304 290 288 288 288 285 286 286 287 283 279 275 267 259 253 244 231 222 208 207 202 198 201
116 119 113 118 126 131 115 52 3 335 332 331 326 335 343 317 314 321 314 306 297 295 290 287 289 290 291 291 291 285 281 277 274 267 257 240 230 218 206 199 192 192 197
99 117 119 113 102 98 77 33 14 3 357 350 349 357 346 333 327 324 317 311 310 299 299 298 293 299 303 296 288 280 278 274 271 276 271 255 232 205 184 183 182 189 195
111 116 121 116 96 85 65 64 73 54 21 21 13 6 355 349 346 343 337 327 315 321 311 309 315 318 317 314 303 294 280 270 272 251 242 216 216 171 174 179 187 199 198
100 109 108 105 91 85 93 78 67 60 44 30 22 13 7 7 1 1 354 347 337 329 333 334 331 332 339 330 323 320 309 287 260 269 225 235 202 191 213 201 194 216 175
116 125 118 104 95 90 87 81 66 53 44 36 29 22 15 12 12 15 355 1 352 347 341 339 343 348 352 345 341 330 320 321 291 245 261 264 215 217 222 172 181 159 157